Location: Apeadero de Los Molinos-Guadarrama
(40.7091°N, 4.0689°W)
Time: 12:29:02
(UTC+00:00)

CZ-2C R/B - Pass Details

Date: 14 May 2021
Orbit: 640 x 703 km, 98.3° (Epoch: 18 June)

Event Time Altitude Azimuth Distance (km) Brightness Sun altitude
Rises 21:13:23 0° 11° (NNE) 2,982 7.6 -17.4°
Reaches altitude 10° 21:15:35 10° 11° (N) 2,074 6.7 -17.6°
Maximum altitude 21:20:07 80° 285° (WNW) 679 3.8 -18.2°
Enters shadow 21:23:58 15° 199° (SSW) 1,803 5.7 -18.7°
